This is the latest recevied weather packets stored in our database for station/object WD7OO. If no packets are shown the sender has not sent any weather packets the latest 10 day(s).
| Time | Temp. | Humidity | Pressure | Rain* | Wind** | Luminosity | Snow |
|---|---|---|---|---|---|---|---|
| 1788119807 | 25.56° C | 75% | 1017.3 hPa | 0 mm | - | 219 W/m² | - |
| 1788119505 | 25.56° C | 76% | 1017.2 hPa | 0 mm | - | 227 W/m² | - |
| 1788119203 | 25.56° C | 77% | 1017.3 hPa | 0 mm | - | 222 W/m² | - |
| 1788118898 | 25.56° C | 75% | 1017.5 hPa | 0 mm | - | 231 W/m² | - |
| 1788118593 | 26.11° C | 73% | 1017.2 hPa | 0 mm | - | 278 W/m² | - |
| 1788118293 | 26.11° C | 76% | 1017 hPa | 0 mm | - | 280 W/m² | - |
| 1788117989 | 26.11° C | 75% | 1017.3 hPa | 0 mm | - | 294 W/m² | - |
| 1788117683 | 26.11° C | 75% | 1017.4 hPa | 0 mm | - | 353 W/m² | - |
| 1788117379 | 26.67° C | 76% | 1017.4 hPa | 0 mm | - | 316 W/m² | - |
| 1788117074 | 27.22° C | 76% | 1017.3 hPa | 0 mm | - | 399 W/m² | - |
| 1788116770 | 27.22° C | 76% | 1017.5 hPa | 0 mm | - | 551 W/m² | - |
| 1788116464 | 26.67° C | 76% | 1017.4 hPa | 0 mm | - | 542 W/m² | - |
| 1788116163 | 26.67° C | 76% | 1017.4 hPa | 0 mm | - | 570 W/m² | - |
| 1788115859 | 26.67° C | 76% | 1017.3 hPa | 0 mm | - | 509 W/m² | - |
| 1788115558 | 26.67° C | 77% | 1017.6 hPa | 0 mm | - | 609 W/m² | - |
| 1788115252 | 26.11° C | 78% | 1017.6 hPa | 0 mm | - | 625 W/m² | - |
| 1788114947 | 26.11° C | 78% | 1017.6 hPa | 0 mm | - | 586 W/m² | - |
| 1788114643 | 25.56° C | 80% | 1017.9 hPa | 0 mm | - | 618 W/m² | - |
| 1788114338 | 25.56° C | 78% | 1017.7 hPa | 0 mm | - | 631 W/m² | - |
| 1788114035 | 26.11° C | 79% | 1017.9 hPa | 0 mm | - | 661 W/m² | - |
| 1788113731 | 26.11° C | 79% | 1017.5 hPa | 0 mm | - | 646 W/m² | - |
| 1788113430 | 25.56° C | 81% | 1017.5 hPa | 0 mm | - | 698 W/m² | - |
| 1788113130 | 25.56° C | 82% | 1017.3 hPa | 0 mm | - | 440 W/m² | - |
| 1788112829 | 25° C | 81% | 1017.3 hPa | 0 mm | - | 687 W/m² | - |
| 1788112528 | 25° C | 81% | 1017.4 hPa | 0 mm | - | 450 W/m² | - |
* Rain latest hour (hover to see other rain measurements)
** Current wind speed in m/s (hover to see current wind gust speed)